Temp
50 50 50 51 50 49 48 48 49 48 47 46 46 45 45 45 45 45 45 44 44 44 44 44 44 43 42 40 41 42 42 43 43 43 44 44 43 42 42 41 40 40 40 40 39 39 38 38 39 39 39 38 38 38 37 38 37 37 37 37 37 37 36 35 35 35 35 34 35
49 48 50 52 52 50 48 47 47 47 47 46 45 45 45 45 45 45 44 43 44 44 44 44 43 42 41 40 41 41 42 42 42 42 43 43 43 42 41 41 40 40 39 39 39 39 39 38 38 38 38 38 37 37 37 37 36 36 36 35 36 36 36 35 35 35 35 34 34
48 47 47 48 47 47 47 46 46 44 44 44 44 44 45 45 45 45 45 44 43 43 43 43 42 41 40 39 40 41 41 41 41 41 42 42 42 42 41 41 40 40 40 39 39 39 39 38 38 38 38 38 37 37 37 36 36 36 35 35 36 36 36 36 35 35 35 35 34
45 45 45 45 44 45 46 48 46 44 43 44 42 43 44 45 45 45 44 42 40 41 42 43 42 41 41 40 40 40 40 41 41 41 41 41 41 41 41 40 40 39 39 39 38 38 38 37 38 39 38 37 36 36 37 37 36 36 36 36 36 36 36 35 35 35 35 35 34
43 44 44 44 44 45 46 46 45 44 44 43 43 43 44 44 45 44 42 42 42 43 43 41 42 42 42 41 39 39 39 40 42 42 41 40 40 40 40 40 39 39 39 38 38 37 37 37 38 38 38 37 36 36 36 36 35 35 36 36 36 36 35 35 35 35 35 35 34
43 43 42 42 42 42 43 44 44 44 44 44 44 44 44 45 44 44 44 45 44 42 40 40 42 43 42 39 38 38 38 39 40 41 40 40 40 40 39 39 39 39 39 38 37 37 36 36 38 38 38 37 36 35 35 35 35 35 35 35 36 36 35 35 35 34 35 35 35
43 43 42 42 41 42 42 42 42 42 42 42 42 43 44 45 44 44 44 45 43 41 41 43 43 43 41 39 38 38 38 39 39 39 40 40 39 39 39 39 39 38 38 38 37 36 36 36 37 38 38 38 37 35 34 34 35 34 34 34 35 35 35 34 34 35 34 34 34
41 41 41 41 41 41 41 41 41 41 42 44 44 44 44 44 44 44 43 43 42 42 42 44 42 41 40 39 39 39 38 38 39 39 39 39 39 39 39 39 38 38 38 37 37 37 36 37 37 38 38 37 37 36 34 33 33 34 34 34 35 35 35 34 33 33 34 33 32
39 39 39 39 39 39 40 40 40 41 43 44 44 44 44 43 43 43 43 43 44 43 42 43 41 39 39 39 39 39 39 39 38 39 39 39 38 38 38 38 38 38 38 38 37 37 37 37 38 38 37 37 37 36 35 34 33 33 33 34 35 35 35 34 33 33 33 32 31
40 40 39 39 39 39 39 38 38 39 41 43 43 43 44 46 45 44 44 46 44 43 42 43 41 39 39 39 39 39 39 39 39 38 38 39 38 38 38 38 38 37 38 38 38 38 38 38 38 37 37 37 36 35 35 34 33 33 33 34 34 34 34 34 33 32 32 32 31
40 39 39 39 39 39 39 38 38 38 40 41 41 41 42 44 44 44 44 44 43 42 42 42 41 40 40 40 40 40 39 39 39 39 38 38 38 38 37 37 37 37 37 38 39 39 38 38 37 37 36 37 36 35 34 34 33 33 33 34 34 33 33 33 33 32 32 31 31
39 39 38 38 38 38 38 38 38 38 39 39 40 40 41 42 42 42 42 41 41 42 42 41 41 41 41 42 41 41 40 39 39 38 38 37 37 37 37 37 37 37 37 37 38 38 38 37 37 36 36 36 36 35 34 33 33 33 33 33 33 33 32 32 32 32 32 32 31
39 39 38 38 37 37 37 38 38 38 39 39 40 41 41 42 41 40 40 40 41 43 43 41 40 40 41 42 41 41 40 39 38 38 38 37 37 37 36 36 36 36 37 37 38 38 38 37 36 35 35 35 35 35 34 33 33 32 32 32 32 32 32 31 31 31 32 32 31
39 39 39 38 37 37 37 38 38 39 39 38 40 40 41 40 40 40 40 40 42 42 42 40 40 41 42 41 41 40 40 39 38 38 37 37 37 36 36 36 36 36 36 37 37 37 37 36 35 35 35 34 35 35 34 33 33 32 32 32 32 32 31 31 31 31 31 31 30
39 39 38 38 38 38 38 38 38 39 39 39 40 40 40 41 41 41 41 41 41 41 40 39 41 41 41 40 40 39 39 39 38 37 37 37 36 36 36 35 35 36 36 36 37 37 36 35 35 35 34 34 34 34 34 33 33 32 32 32 32 32 31 31 31 31 30 30 30
39 38 38 38 38 38 38 38 38 39 39 41 40 39 39 41 41 41 40 40 41 41 40 39 40 40 40 39 39 38 38 38 38 37 37 36 36 36 36 36 36 36 36 35 36 36 36 35 35 35 34 34 34 34 34 33 33 32 32 32 32 31 31 31 31 31 30 30 30
38 38 37 37 37 37 37 37 38 38 39 40 39 39 40 40 39 40 41 42 42 41 40 39 39 39 39 39 39 38 38 38 38 37 37 37 36 36 36 36 36 36 35 35 35 35 35 35 35 35 34 34 34 34 33 33 32 32 32 32 31 31 31 32 32 31 31 31 30
38 37 37 37 36 36 36 36 36 37 38 38 39 38 38 39 38 39 41 41 40 40 39 39 39 38 38 37 38 38 39 38 37 37 37 37 36 36 36 36 36 36 35 34 34 35 35 35 35 35 34 34 34 33 33 33 32 32 32 31 31 31 31 32 32 32 31 31 31
37 37 36 36 36 36 36 36 36 37 37 37 37 37 37 37 37 38 39 38 39 39 39 39 38 38 38 37 37 38 39 39 37 37 37 36 36 36 36 36 36 35 35 34 34 34 35 35 34 34 34 33 33 33 33 32 32 32 31 31 31 30 30 31 31 31 31 31 31
37 36 36 36 36 36 36 36 37 37 37 36 36 36 37 36 36 36 37 38 38 38 37 38 38 38 38 37 37 37 39 39 38 37 37 36 36 35 35 36 36 35 34 33 33 34 34 34 34 33 33 32 32 32 32 32 32 31 31 30 30 30 30 30 30 30 30 30 30
36 36 36 36 37 36 36 37 37 37 36 36 36 36 37 36 36 36 37 38 38 37 36 36 37 37 37 37 37 37 38 39 38 37 37 36 35 35 35 36 36 35 34 33 33 33 33 33 33 32 32 31 31 31 31 31 31 31 30 30 30 30 30 30 30 30 30 30 30
36 36 36 37 36 36 37 37 36 36 36 36 36 36 36 36 36 37 37 36 36 36 36 37 37 37 37 37 37 37 37 39 38 37 37 36 36 35 35 35 35 34 34 33 32 32 32 32 32 31 31 30 30 30 30 31 31 30 30 30 30 30 29 29 29 30 30 30 30
36 36 36 36 36 37 38 37 36 36 36 36 36 36 36 36 36 36 35 35 36 36 37 37 37 37 37 37 37 37 36 37 36 36 36 35 35 35 34 34 34 33 33 32 32 32 31 31 31 31 30 30 30 30 30 31 31 30 30 30 29 29 29 29 29 29 29 29 29
36 36 37 38 37 36 36 36 36 36 36 37 37 36 36 36 36 35 35 34 35 35 36 38 38 38 37 36 36 35 35 35 35 35 35 34 34 34 33 33 33 33 32 32 32 32 32 31 30 30 30 30 29 30 30 30 30 30 30 29 29 29 29 28 29 29 29 29 29
36 36 36 36 36 35 35 35 36 36 37 37 37 36 36 36 35 35 35 35 35 35 36 36 37 37 36 36 35 35 35 34 34 34 34 34 34 33 33 33 33 33 32 33 36 38 38 36 34 31 30 30 30 30 30 30 30 30 30 29 29 28 28 28 28 28 28 28 29
35 35 36 36 35 35 35 36 36 36 36 36 36 36 36 36 35 35 34 35 35 35 35 35 36 37 37 36 35 35 34 35 35 34 34 34 33 33 33 33 33 32 32 35 38 40 41 41 39 36 32 29 29 29 30 30 30 30 30 29 29 28 28 28 28 28 28 28 29
35 35 35 35 35 35 35 36 36 36 35 35 35 36 36 36 36 35 35 35 35 35 35 35 35 37 38 37 35 34 34 35 35 34 34 33 33 33 33 33 33 32 32 36 39 41 42 43 42 40 36 31 30 29 29 29 30 30 30 30 29 29 28 27 28 28 28 28 29
35 35 35 35 35 35 36 36 35 35 35 36 36 36 36 35 35 34 35 35 35 34 34 35 35 36 37 36 35 34 34 34 35 34 34 33 33 33 33 34 33 33 34 38 40 42 43 43 43 43 41 35 31 29 29 29 30 30 30 30 29 29 28 28 28 28 29 28 28
35 35 35 35 35 36 36 36 35 36 36 36 36 35 35 34 34 34 34 34 34 34 35 36 36 36 35 35 35 35 34 34 34 34 34 33 33 33 33 33 33 34 37 40 41 42 43 43 43 44 43 41 35 32 30 30 30 30 30 30 30 29 29 29 29 29 29 29 29
35 35 35 35 35 36 36 36 36 36 36 37 36 35 34 34 34 34 34 34 34 35 36 36 36 35 35 35 35 35 34 34 34 33 33 32 32 32 33 34 33 34 37 41 41 42 43 43 43 44 44 43 39 35 32 30 30 31 31 30 30 30 29 29 29 29 29 29 29
36 35 35 35 36 36 36 37 37 37 36 36 35 35 35 35 35 35 35 34 35 36 36 35 34 34 34 35 34 34 34 34 33 33 32 32 33 33 33 33 33 34 36 40 41 42 43 43 43 43 43 44 41 38 34 32 31 31 31 30 30 30 29 29 29 29 29 29 29
36 36 36 36 36 36 37 37 37 37 36 36 35 35 35 36 36 36 35 35 35 35 35 34 34 34 33 33 33 33 33 33 33 33 32 32 32 32 33 33 32 33 36 40 41 42 43 43 43 43 43 43 42 39 36 33 32 31 30 30 30 30 29 29 29 29 29 29 29
37 37 36 36 36 37 37 37 37 37 36 36 36 36 36 37 37 36 36 35 35 35 34 34 34 34 34 33 33 33 33 33 33 33 34 34 33 32 32 33 33 34 37 40 41 42 42 43 43 43 43 43 41 39 37 35 32 31 30 30 30 29 29 29 29 29 29 29 30
38 37 37 37 37 37 37 37 37 36 36 36 36 36 37 37 37 37 37 36 36 35 35 34 35 35 35 34 34 34 34 35 34 33 33 32 32 32 32 32 33 35 38 40 41 42 42 42 43 43 43 43 40 39 37 36 33 32 31 30 30 29 29 29 29 29 29 29 30
38 38 37 37 37 37 37 37 36 36 36 36 36 37 37 37 37 37 38 38 38 36 35 35 35 35 35 34 34 34 34 34 34 33 32 32 31 31 31 32 33 35 39 41 41 42 42 42 42 42 42 42 39 38 37 36 34 32 31 30 30 29 29 29 29 29 29 29 30
39 38 38 37 37 37 37 36 36 35 35 36 37 37 38 37 38 37 37 39 38 37 35 35 35 34 33 33 33 34 34 34 33 32 32 32 31 31 31 31 32 34 38 40 41 41 42 42 42 42 42 40 38 37 36 36 35 33 31 30 30 29 29 29 29 29 29 29 29
40 39 38 38 38 37 37 37 36 36 37 37 38 38 38 38 38 37 37 38 36 35 35 35 35 34 34 34 34 35 35 34 33 32 32 33 32 31 31 31 31 33 36 39 40 41 42 42 42 42 41 39 37 35 35 35 35 33 32 30 30 30 30 29 29 29 29 28 29
41 40 39 38 38 38 38 38 37 38 38 39 38 38 37 37 37 37 37 39 36 35 35 35 35 35 35 35 35 35 34 33 33 33 32 32 32 32 31 31 31 32 34 38 39 40 41 41 42 42 41 38 36 35 35 35 34 33 32 31 30 30 30 30 30 30 29 29 30
42 40 39 38 38 38 38 38 39 39 39 39 39 39 38 37 37 37 38 39 37 36 36 36 36 36 36 36 36 35 34 33 33 33 33 32 33 33 33 32 31 32 34 37 39 40 40 41 41 41 41 39 36 35 35 34 34 33 32 31 30 30 30 30 30 30 29 29 32
42 41 39 39 39 39 39 40 40 41 41 40 40 39 38 37 38 39 39 38 37 36 36 36 36 37 37 38 37 35 34 33 32 33 33 33 34 35 36 34 33 32 34 37 39 39 40 40 41 41 41 39 36 35 34 34 34 33 32 31 30 30 29 30 30 30 29 29 32
42 41 40 39 39 39 40 41 41 41 41 40 39 39 39 39 40 39 38 37 36 36 36 37 37 37 37 38 38 36 34 33 32 32 33 34 34 36 37 35 34 33 33 35 38 39 40 40 41 41 41 38 36 35 34 34 33 33 32 32 31 30 29 29 29 29 29 29 30
MSLP
1015.14 1015.14 1015.22 1015.30 1015.34 1015.46 1015.50 1015.50 1015.54 1015.58 1015.70 1015.74 1015.86 1015.86 1015.90 1015.98 1016.02 1015.98 1015.94 1016.02 1015.98 1015.90 1015.86 1015.86 1015.86 1015.86 1015.94 1016.06 1016.18 1016.26 1016.30 1016.30 1016.38 1016.38 1016.42 1016.50 1016.58 1016.66 1016.78 1016.90 1017.02 1017.18 1017.30 1017.46 1017.58 1017.78 1017.94 1018.10 1018.22 1018.30 1018.38 1018.42 1018.46 1018.54 1018.58 1018.66 1018.78 1018.90 1019.02 1019.10 1019.14 1019.26 1019.38 1019.50 1019.58 1019.62 1019.74 1019.82 1019.86
1014.90 1014.94 1014.98 1015.02 1015.06 1015.14 1015.26 1015.30 1015.34 1015.38 1015.42 1015.46 1015.46 1015.54 1015.58 1015.66 1015.70 1015.66 1015.66 1015.70 1015.62 1015.58 1015.58 1015.58 1015.58 1015.66 1015.74 1015.86 1015.90 1015.98 1016.06 1016.06 1016.14 1016.18 1016.22 1016.30 1016.30 1016.42 1016.58 1016.70 1016.82 1016.94 1017.06 1017.18 1017.34 1017.50 1017.66 1017.86 1017.98 1018.06 1018.14 1018.14 1018.26 1018.30 1018.30 1018.38 1018.54 1018.70 1018.74 1018.82 1018.86 1019.02 1019.14 1019.22 1019.22 1019.30 1019.46 1019.58 1019.66
1014.74 1014.74 1014.78 1014.86 1014.94 1015.02 1015.10 1015.14 1015.14 1015.14 1015.18 1015.18 1015.14 1015.22 1015.30 1015.30 1015.30 1015.30 1015.30 1015.30 1015.30 1015.34 1015.42 1015.42 1015.42 1015.46 1015.54 1015.62 1015.66 1015.74 1015.82 1015.86 1015.90 1016.02 1016.06 1016.06 1016.14 1016.26 1016.38 1016.46 1016.58 1016.70 1016.82 1016.98 1017.10 1017.22 1017.34 1017.50 1017.70 1017.78 1017.86 1017.86 1017.98 1018.02 1018.02 1018.14 1018.30 1018.42 1018.50 1018.54 1018.62 1018.74 1018.86 1018.90 1018.98 1019.14 1019.30 1019.42 1019.50
1014.58 1014.62 1014.70 1014.74 1014.78 1014.86 1014.86 1014.82 1014.86 1014.86 1014.90 1014.90 1014.90 1014.98 1015.02 1015.02 1015.02 1015.02 1015.02 1015.06 1015.14 1015.18 1015.18 1015.14 1015.14 1015.18 1015.30 1015.42 1015.46 1015.54 1015.58 1015.62 1015.70 1015.82 1015.86 1015.86 1015.94 1016.02 1016.14 1016.30 1016.38 1016.50 1016.58 1016.74 1016.86 1016.98 1017.06 1017.26 1017.38 1017.46 1017.50 1017.58 1017.66 1017.70 1017.74 1017.86 1018.02 1018.14 1018.18 1018.26 1018.38 1018.50 1018.58 1018.66 1018.74 1018.90 1019.06 1019.14 1019.26
1014.50 1014.46 1014.42 1014.42 1014.46 1014.46 1014.42 1014.42 1014.50 1014.54 1014.58 1014.58 1014.70 1014.78 1014.78 1014.74 1014.78 1014.82 1014.86 1014.90 1014.90 1014.86 1014.86 1014.86 1014.94 1014.98 1015.02 1015.14 1015.26 1015.34 1015.42 1015.46 1015.50 1015.58 1015.66 1015.70 1015.74 1015.86 1015.90 1016.02 1016.14 1016.26 1016.38 1016.50 1016.62 1016.74 1016.86 1017.02 1017.14 1017.18 1017.22 1017.30 1017.38 1017.38 1017.46 1017.58 1017.74 1017.86 1017.90 1018.02 1018.14 1018.22 1018.30 1018.42 1018.54 1018.66 1018.82 1018.90 1019.02
1014.30 1014.22 1014.18 1014.14 1014.18 1014.18 1014.18 1014.14 1014.18 1014.18 1014.26 1014.34 1014.50 1014.54 1014.54 1014.54 1014.58 1014.62 1014.62 1014.62 1014.58 1014.58 1014.62 1014.70 1014.74 1014.74 1014.86 1014.98 1015.06 1015.14 1015.26 1015.30 1015.38 1015.42 1015.46 1015.50 1015.58 1015.66 1015.74 1015.86 1015.90 1016.02 1016.14 1016.26 1016.38 1016.50 1016.66 1016.82 1016.90 1016.94 1016.98 1017.02 1017.10 1017.14 1017.22 1017.38 1017.54 1017.62 1017.74 1017.82 1017.86 1017.90 1018.02 1018.14 1018.30 1018.42 1018.54 1018.62 1018.74
1014.14 1014.10 1014.02 1014.02 1014.02 1014.02 1014.02 1014.02 1013.98 1014.02 1014.06 1014.18 1014.30 1014.34 1014.30 1014.30 1014.30 1014.38 1014.34 1014.30 1014.30 1014.42 1014.46 1014.54 1014.58 1014.58 1014.70 1014.82 1014.90 1015.02 1015.06 1015.14 1015.14 1015.18 1015.22 1015.30 1015.34 1015.46 1015.54 1015.58 1015.70 1015.78 1015.90 1016.02 1016.14 1016.30 1016.42 1016.58 1016.62 1016.66 1016.70 1016.74 1016.86 1016.94 1017.02 1017.22 1017.30 1017.42 1017.50 1017.58 1017.54 1017.62 1017.78 1017.86 1017.94 1018.14 1018.30 1018.34 1018.42
1014.14 1014.06 1013.98 1013.90 1013.86 1013.86 1013.90 1013.86 1013.86 1013.94 1014.02 1014.10 1014.10 1014.10 1014.06 1014.06 1014.10 1014.14 1014.14 1014.14 1014.22 1014.30 1014.30 1014.30 1014.38 1014.42 1014.46 1014.58 1014.70 1014.74 1014.82 1014.86 1014.94 1014.98 1015.02 1015.02 1015.14 1015.22 1015.30 1015.34 1015.46 1015.54 1015.58 1015.74 1015.86 1016.02 1016.14 1016.30 1016.34 1016.34 1016.38 1016.42 1016.54 1016.62 1016.74 1016.90 1017.02 1017.10 1017.18 1017.22 1017.30 1017.38 1017.46 1017.58 1017.74 1017.86 1017.94 1018.02 1018.14
1014.18 1014.06 1013.98 1013.90 1013.86 1013.82 1013.78 1013.78 1013.78 1013.86 1013.90 1013.90 1013.90 1013.86 1013.86 1013.86 1013.90 1013.94 1014.02 1014.02 1014.02 1014.02 1014.10 1014.14 1014.18 1014.30 1014.38 1014.42 1014.46 1014.50 1014.58 1014.66 1014.74 1014.74 1014.82 1014.86 1014.90 1014.98 1015.02 1015.10 1015.18 1015.26 1015.34 1015.46 1015.62 1015.74 1015.86 1015.98 1016.02 1016.02 1016.02 1016.06 1016.14 1016.22 1016.34 1016.58 1016.74 1016.82 1016.86 1016.94 1017.02 1017.06 1017.14 1017.26 1017.42 1017.54 1017.66 1017.78 1017.90
1014.14 1014.02 1013.94 1013.90 1013.82 1013.74 1013.74 1013.74 1013.74 1013.74 1013.78 1013.74 1013.70 1013.66 1013.66 1013.70 1013.74 1013.78 1013.78 1013.78 1013.78 1013.86 1013.94 1013.98 1014.02 1014.14 1014.26 1014.30 1014.30 1014.34 1014.38 1014.42 1014.50 1014.58 1014.62 1014.66 1014.70 1014.74 1014.82 1014.86 1014.94 1015.02 1015.10 1015.22 1015.34 1015.50 1015.62 1015.74 1015.74 1015.66 1015.66 1015.70 1015.78 1015.90 1016.06 1016.26 1016.42 1016.50 1016.58 1016.58 1016.70 1016.82 1016.90 1017.02 1017.14 1017.26 1017.38 1017.50 1017.58
1014.14 1014.02 1013.94 1013.86 1013.74 1013.66 1013.66 1013.74 1013.74 1013.70 1013.66 1013.62 1013.58 1013.54 1013.50 1013.54 1013.54 1013.50 1013.50 1013.54 1013.66 1013.74 1013.70 1013.70 1013.86 1013.98 1014.02 1014.06 1014.10 1014.14 1014.18 1014.30 1014.30 1014.42 1014.42 1014.46 1014.50 1014.54 1014.58 1014.62 1014.70 1014.74 1014.86 1014.94 1015.06 1015.22 1015.34 1015.42 1015.42 1015.42 1015.38 1015.46 1015.54 1015.70 1015.86 1016.02 1016.10 1016.18 1016.30 1016.30 1016.42 1016.54 1016.66 1016.70 1016.82 1016.98 1017.10 1017.22 1017.34
1014.14 1014.02 1013.90 1013.82 1013.74 1013.66 1013.66 1013.70 1013.62 1013.58 1013.58 1013.50 1013.46 1013.42 1013.34 1013.34 1013.30 1013.30 1013.34 1013.46 1013.50 1013.46 1013.42 1013.46 1013.58 1013.74 1013.74 1013.78 1013.82 1013.90 1013.98 1014.06 1014.14 1014.22 1014.30 1014.30 1014.30 1014.30 1014.38 1014.42 1014.46 1014.54 1014.58 1014.70 1014.82 1014.94 1015.02 1015.02 1015.06 1015.10 1015.14 1015.22 1015.38 1015.50 1015.66 1015.74 1015.86 1015.94 1016.02 1016.06 1016.14 1016.26 1016.34 1016.42 1016.54 1016.70 1016.82 1016.98 1017.14
1014.10 1014.02 1013.86 1013.78 1013.74 1013.70 1013.66 1013.62 1013.58 1013.50 1013.46 1013.42 1013.30 1013.22 1013.18 1013.14 1013.10 1013.14 1013.22 1013.26 1013.22 1013.14 1013.14 1013.22 1013.30 1013.46 1013.46 1013.46 1013.54 1013.62 1013.74 1013.82 1013.90 1013.98 1014.02 1014.02 1014.02 1014.14 1014.22 1014.26 1014.30 1014.34 1014.42 1014.50 1014.58 1014.66 1014.70 1014.70 1014.74 1014.82 1014.90 1015.02 1015.14 1015.26 1015.38 1015.50 1015.62 1015.74 1015.78 1015.86 1015.94 1016.02 1016.06 1016.14 1016.30 1016.42 1016.58 1016.74 1016.86
1014.02 1013.98 1013.90 1013.78 1013.74 1013.70 1013.66 1013.58 1013.54 1013.46 1013.38 1013.30 1013.14 1013.06 1013.02 1012.98 1012.90 1012.94 1013.02 1013.02 1012.98 1012.94 1012.94 1013.02 1013.06 1013.10 1013.14 1013.14 1013.22 1013.30 1013.42 1013.50 1013.58 1013.70 1013.74 1013.74 1013.78 1013.86 1013.98 1014.02 1014.06 1014.14 1014.22 1014.26 1014.30 1014.34 1014.38 1014.38 1014.42 1014.46 1014.58 1014.74 1014.86 1014.94 1015.06 1015.22 1015.34 1015.42 1015.50 1015.58 1015.66 1015.74 1015.82 1015.98 1016.10 1016.30 1016.42 1016.50 1016.58
1014.02 1013.94 1013.86 1013.78 1013.74 1013.74 1013.66 1013.58 1013.50 1013.42 1013.30 1013.18 1013.06 1012.94 1012.86 1012.86 1012.74 1012.74 1012.74 1012.78 1012.74 1012.70 1012.74 1012.82 1012.78 1012.74 1012.78 1012.86 1012.90 1013.02 1013.06 1013.18 1013.30 1013.34 1013.42 1013.46 1013.50 1013.58 1013.70 1013.74 1013.82 1013.86 1013.94 1014.02 1014.02 1014.06 1014.06 1014.06 1014.06 1014.14 1014.30 1014.42 1014.50 1014.62 1014.74 1014.90 1015.02 1015.10 1015.14 1015.26 1015.34 1015.46 1015.58 1015.74 1015.86 1016.06 1016.14 1016.22 1016.34
1013.98 1013.90 1013.86 1013.78 1013.74 1013.70 1013.62 1013.54 1013.42 1013.34 1013.26 1013.14 1012.94 1012.86 1012.78 1012.70 1012.62 1012.58 1012.58 1012.58 1012.54 1012.54 1012.58 1012.58 1012.54 1012.50 1012.54 1012.58 1012.58 1012.70 1012.82 1012.86 1012.98 1013.06 1013.10 1013.14 1013.18 1013.30 1013.34 1013.46 1013.50 1013.58 1013.62 1013.74 1013.74 1013.74 1013.74 1013.74 1013.82 1013.90 1014.02 1014.14 1014.22 1014.30 1014.42 1014.54 1014.66 1014.78 1014.86 1014.98 1015.02 1015.14 1015.30 1015.46 1015.58 1015.74 1015.86 1015.90 1016.02
1013.98 1013.86 1013.78 1013.74 1013.70 1013.62 1013.54 1013.46 1013.34 1013.30 1013.14 1013.02 1012.86 1012.78 1012.70 1012.58 1012.58 1012.50 1012.46 1012.42 1012.38 1012.38 1012.38 1012.34 1012.30 1012.30 1012.30 1012.30 1012.30 1012.42 1012.58 1012.58 1012.62 1012.70 1012.74 1012.78 1012.86 1012.90 1013.02 1013.02 1013.10 1013.18 1013.30 1013.38 1013.46 1013.46 1013.46 1013.46 1013.58 1013.66 1013.74 1013.86 1013.94 1014.02 1014.14 1014.22 1014.34 1014.46 1014.58 1014.70 1014.78 1014.86 1015.02 1015.10 1015.26 1015.42 1015.50 1015.58 1015.66
1013.90 1013.82 1013.70 1013.66 1013.58 1013.54 1013.46 1013.34 1013.26 1013.14 1013.06 1012.94 1012.82 1012.70 1012.58 1012.54 1012.46 1012.42 1012.30 1012.22 1012.26 1012.30 1012.22 1012.14 1012.10 1012.10 1012.10 1012.10 1012.10 1012.14 1012.22 1012.30 1012.30 1012.30 1012.30 1012.34 1012.42 1012.54 1012.58 1012.66 1012.70 1012.82 1012.94 1013.02 1013.06 1013.10 1013.14 1013.22 1013.30 1013.42 1013.50 1013.58 1013.66 1013.74 1013.86 1013.98 1014.02 1014.14 1014.26 1014.38 1014.50 1014.58 1014.70 1014.82 1014.94 1015.02 1015.14 1015.30 1015.34
1013.86 1013.74 1013.62 1013.58 1013.46 1013.38 1013.30 1013.18 1013.10 1013.02 1012.90 1012.78 1012.70 1012.58 1012.50 1012.42 1012.34 1012.30 1012.22 1012.14 1012.10 1012.06 1012.06 1012.02 1011.94 1011.90 1011.90 1011.90 1011.86 1011.86 1011.86 1011.86 1011.86 1011.86 1011.86 1011.94 1012.06 1012.14 1012.18 1012.26 1012.34 1012.46 1012.58 1012.70 1012.74 1012.74 1012.82 1012.86 1013.02 1013.14 1013.22 1013.34 1013.42 1013.50 1013.58 1013.74 1013.78 1013.86 1013.98 1014.14 1014.22 1014.34 1014.42 1014.54 1014.62 1014.74 1014.86 1014.94 1015.02
1013.74 1013.62 1013.50 1013.42 1013.30 1013.22 1013.14 1013.02 1012.94 1012.86 1012.74 1012.58 1012.54 1012.42 1012.34 1012.26 1012.18 1012.14 1012.14 1012.02 1011.86 1011.86 1011.86 1011.86 1011.82 1011.74 1011.74 1011.70 1011.70 1011.62 1011.58 1011.54 1011.58 1011.58 1011.58 1011.62 1011.70 1011.78 1011.86 1011.90 1012.02 1012.14 1012.26 1012.30 1012.38 1012.42 1012.50 1012.58 1012.74 1012.82 1012.94 1013.06 1013.14 1013.26 1013.34 1013.46 1013.58 1013.66 1013.74 1013.86 1013.98 1014.06 1014.14 1014.26 1014.38 1014.46 1014.54 1014.62 1014.74
1013.58 1013.46 1013.34 1013.26 1013.14 1013.06 1012.94 1012.86 1012.74 1012.66 1012.58 1012.42 1012.38 1012.30 1012.18 1012.10 1012.02 1012.02 1011.90 1011.74 1011.66 1011.70 1011.74 1011.70 1011.66 1011.58 1011.54 1011.46 1011.46 1011.46 1011.34 1011.30 1011.30 1011.30 1011.30 1011.30 1011.38 1011.46 1011.50 1011.58 1011.74 1011.82 1011.90 1012.02 1012.06 1012.14 1012.22 1012.30 1012.42 1012.58 1012.66 1012.74 1012.86 1012.94 1013.02 1013.14 1013.30 1013.38 1013.46 1013.58 1013.74 1013.82 1013.90 1014.02 1014.14 1014.18 1014.30 1014.38 1014.46
1013.34 1013.22 1013.14 1013.06 1012.98 1012.86 1012.74 1012.66 1012.54 1012.46 1012.42 1012.30 1012.18 1012.10 1012.02 1011.94 1011.86 1011.74 1011.58 1011.54 1011.54 1011.54 1011.54 1011.46 1011.42 1011.34 1011.30 1011.30 1011.26 1011.14 1011.10 1011.06 1011.10 1011.06 1011.06 1011.06 1011.06 1011.10 1011.18 1011.30 1011.42 1011.50 1011.58 1011.66 1011.74 1011.86 1011.94 1012.02 1012.14 1012.26 1012.38 1012.50 1012.58 1012.66 1012.74 1012.86 1013.02 1013.10 1013.22 1013.30 1013.46 1013.58 1013.66 1013.78 1013.86 1013.94 1014.02 1014.10 1014.18
1013.14 1013.02 1012.98 1012.86 1012.82 1012.70 1012.58 1012.46 1012.42 1012.30 1012.22 1012.14 1012.02 1011.90 1011.82 1011.74 1011.58 1011.50 1011.46 1011.42 1011.38 1011.30 1011.26 1011.18 1011.14 1011.06 1011.02 1010.98 1010.94 1010.90 1010.86 1010.86 1010.86 1010.82 1010.82 1010.86 1010.86 1010.90 1010.94 1011.02 1011.14 1011.18 1011.22 1011.30 1011.42 1011.54 1011.66 1011.74 1011.86 1011.98 1012.10 1012.18 1012.30 1012.38 1012.46 1012.58 1012.70 1012.82 1012.94 1013.02 1013.18 1013.30 1013.42 1013.50 1013.58 1013.70 1013.78 1013.86 1013.98
1013.02 1012.90 1012.78 1012.70 1012.62 1012.54 1012.42 1012.38 1012.30 1012.22 1012.10 1011.94 1011.82 1011.70 1011.62 1011.50 1011.38 1011.30 1011.26 1011.22 1011.14 1011.10 1011.02 1010.94 1010.82 1010.74 1010.74 1010.70 1010.70 1010.70 1010.74 1010.70 1010.66 1010.58 1010.58 1010.62 1010.66 1010.66 1010.74 1010.78 1010.86 1010.86 1010.86 1010.94 1011.02 1011.18 1011.30 1011.46 1011.58 1011.70 1011.78 1011.86 1011.98 1012.10 1012.18 1012.30 1012.38 1012.50 1012.62 1012.74 1012.90 1013.02 1013.14 1013.26 1013.38 1013.46 1013.58 1013.66 1013.74
1012.86 1012.74 1012.66 1012.58 1012.46 1012.38 1012.30 1012.22 1012.14 1012.06 1011.90 1011.74 1011.58 1011.54 1011.46 1011.30 1011.26 1011.14 1011.10 1011.02 1010.94 1010.86 1010.74 1010.70 1010.58 1010.50 1010.46 1010.42 1010.42 1010.42 1010.46 1010.50 1010.46 1010.42 1010.42 1010.38 1010.38 1010.42 1010.42 1010.50 1010.50 1010.50 1010.54 1010.58 1010.62 1010.70 1010.82 1010.98 1011.14 1011.30 1011.46 1011.58 1011.70 1011.82 1011.90 1012.02 1012.10 1012.18 1012.30 1012.46 1012.58 1012.74 1012.86 1012.98 1013.10 1013.22 1013.30 1013.42 1013.50
1012.62 1012.58 1012.50 1012.38 1012.30 1012.22 1012.14 1012.02 1011.90 1011.82 1011.70 1011.54 1011.46 1011.34 1011.26 1011.10 1011.02 1010.98 1010.90 1010.82 1010.70 1010.58 1010.46 1010.42 1010.34 1010.30 1010.26 1010.22 1010.18 1010.22 1010.22 1010.18 1010.18 1010.14 1010.14 1010.14 1010.14 1010.14 1010.18 1010.18 1010.18 1010.18 1010.18 1010.18 1010.18 1010.22 1010.30 1010.42 1010.58 1010.86 1011.06 1011.30 1011.42 1011.54 1011.66 1011.74 1011.82 1011.90 1012.02 1012.14 1012.30 1012.42 1012.58 1012.66 1012.78 1012.90 1013.02 1013.14 1013.26
1012.46 1012.42 1012.30 1012.18 1012.14 1012.10 1011.94 1011.78 1011.70 1011.58 1011.50 1011.38 1011.26 1011.14 1011.02 1010.86 1010.78 1010.74 1010.70 1010.58 1010.38 1010.30 1010.26 1010.22 1010.14 1010.06 1009.98 1009.98 1009.98 1009.98 1009.94 1009.86 1009.86 1009.86 1009.86 1009.86 1009.86 1009.86 1009.86 1009.86 1009.82 1009.86 1009.86 1009.82 1009.78 1009.82 1009.90 1009.98 1010.10 1010.30 1010.58 1010.90 1011.06 1011.18 1011.30 1011.42 1011.50 1011.62 1011.74 1011.86 1011.98 1012.10 1012.18 1012.30 1012.42 1012.58 1012.74 1012.90 1013.02
1012.30 1012.22 1012.10 1012.02 1011.98 1011.86 1011.70 1011.54 1011.46 1011.38 1011.26 1011.10 1010.98 1010.86 1010.74 1010.62 1010.58 1010.54 1010.42 1010.30 1010.14 1010.10 1010.06 1010.02 1009.86 1009.78 1009.74 1009.74 1009.70 1009.62 1009.58 1009.54 1009.54 1009.54 1009.54 1009.58 1009.58 1009.58 1009.54 1009.50 1009.50 1009.50 1009.46 1009.46 1009.42 1009.46 1009.54 1009.58 1009.66 1009.78 1010.02 1010.34 1010.66 1010.86 1010.98 1011.10 1011.18 1011.34 1011.46 1011.58 1011.62 1011.74 1011.86 1011.94 1012.06 1012.26 1012.42 1012.58 1012.74
1012.06 1012.02 1011.98 1011.90 1011.78 1011.58 1011.46 1011.30 1011.22 1011.06 1010.90 1010.78 1010.66 1010.58 1010.50 1010.42 1010.38 1010.30 1010.18 1010.06 1009.98 1009.90 1009.82 1009.70 1009.58 1009.58 1009.58 1009.50 1009.38 1009.26 1009.22 1009.22 1009.18 1009.22 1009.22 1009.22 1009.22 1009.22 1009.18 1009.14 1009.14 1009.14 1009.10 1009.10 1009.14 1009.14 1009.18 1009.22 1009.30 1009.34 1009.46 1009.70 1010.14 1010.42 1010.58 1010.74 1010.86 1010.98 1011.06 1011.14 1011.22 1011.34 1011.46 1011.58 1011.74 1011.94 1012.10 1012.26 1012.42
1011.82 1011.78 1011.78 1011.74 1011.58 1011.38 1011.22 1011.10 1010.90 1010.74 1010.58 1010.50 1010.42 1010.34 1010.30 1010.22 1010.14 1010.02 1009.94 1009.82 1009.74 1009.58 1009.46 1009.38 1009.30 1009.30 1009.30 1009.14 1009.06 1009.02 1008.98 1008.94 1008.90 1008.94 1008.98 1008.98 1008.98 1008.90 1008.86 1008.86 1008.86 1008.82 1008.78 1008.78 1008.82 1008.82 1008.86 1008.90 1008.94 1009.02 1009.02 1009.14 1009.46 1009.78 1010.10 1010.30 1010.42 1010.54 1010.58 1010.70 1010.78 1010.90 1011.02 1011.22 1011.46 1011.58 1011.78 1011.94 1012.14
1011.58 1011.58 1011.58 1011.50 1011.34 1011.18 1010.98 1010.74 1010.58 1010.42 1010.38 1010.30 1010.18 1010.14 1010.06 1009.98 1009.86 1009.70 1009.54 1009.46 1009.34 1009.22 1009.10 1009.10 1009.10 1009.06 1008.94 1008.82 1008.78 1008.74 1008.74 1008.62 1008.58 1008.66 1008.74 1008.70 1008.62 1008.58 1008.54 1008.50 1008.50 1008.50 1008.46 1008.50 1008.50 1008.54 1008.58 1008.58 1008.62 1008.66 1008.74 1008.74 1008.94 1009.18 1009.50 1009.74 1009.94 1010.06 1010.14 1010.18 1010.30 1010.42 1010.58 1010.82 1011.02 1011.22 1011.42 1011.58 1011.78
1011.34 1011.34 1011.30 1011.22 1011.14 1010.90 1010.66 1010.42 1010.30 1010.18 1010.14 1010.06 1009.98 1009.90 1009.82 1009.66 1009.50 1009.30 1009.14 1009.10 1009.02 1008.94 1008.86 1008.86 1008.86 1008.74 1008.66 1008.58 1008.54 1008.50 1008.42 1008.38 1008.38 1008.38 1008.38 1008.38 1008.30 1008.26 1008.22 1008.22 1008.22 1008.26 1008.26 1008.26 1008.26 1008.26 1008.26 1008.30 1008.30 1008.34 1008.42 1008.50 1008.58 1008.74 1008.94 1009.22 1009.46 1009.58 1009.66 1009.74 1009.86 1010.02 1010.22 1010.42 1010.62 1010.82 1011.02 1011.26 1011.46
1011.10 1011.06 1011.06 1011.02 1010.86 1010.62 1010.42 1010.22 1010.06 1009.98 1009.86 1009.82 1009.74 1009.66 1009.50 1009.30 1009.14 1008.98 1008.86 1008.82 1008.74 1008.70 1008.62 1008.58 1008.54 1008.42 1008.38 1008.30 1008.22 1008.14 1008.14 1008.10 1008.06 1008.02 1007.98 1008.02 1008.02 1007.98 1007.98 1007.98 1007.98 1007.98 1008.02 1008.02 1008.02 1008.02 1008.02 1008.02 1008.02 1008.02 1008.10 1008.18 1008.30 1008.38 1008.50 1008.74 1008.98 1009.14 1009.26 1009.30 1009.46 1009.62 1009.82 1010.02 1010.18 1010.42 1010.62 1010.86 1011.06
1010.86 1010.82 1010.78 1010.70 1010.58 1010.38 1010.18 1010.02 1009.86 1009.78 1009.70 1009.58 1009.46 1009.34 1009.22 1009.06 1008.90 1008.74 1008.58 1008.46 1008.42 1008.34 1008.30 1008.26 1008.14 1008.06 1008.02 1007.94 1007.90 1007.86 1007.78 1007.70 1007.70 1007.70 1007.70 1007.74 1007.74 1007.74 1007.74 1007.70 1007.62 1007.62 1007.66 1007.70 1007.74 1007.74 1007.74 1007.74 1007.74 1007.78 1007.82 1007.86 1008.02 1008.14 1008.14 1008.30 1008.50 1008.70 1008.82 1008.94 1009.10 1009.30 1009.50 1009.70 1009.86 1010.06 1010.30 1010.50 1010.74
1010.58 1010.58 1010.50 1010.42 1010.30 1010.14 1009.98 1009.82 1009.66 1009.58 1009.50 1009.38 1009.18 1009.02 1008.90 1008.82 1008.70 1008.50 1008.30 1008.14 1008.10 1008.02 1007.98 1007.86 1007.78 1007.74 1007.70 1007.62 1007.58 1007.58 1007.54 1007.42 1007.38 1007.38 1007.42 1007.46 1007.50 1007.54 1007.46 1007.38 1007.30 1007.30 1007.38 1007.42 1007.46 1007.46 1007.46 1007.46 1007.50 1007.54 1007.58 1007.66 1007.78 1007.86 1007.90 1007.98 1008.10 1008.26 1008.38 1008.54 1008.74 1008.94 1009.14 1009.42 1009.62 1009.82 1010.02 1010.18 1010.42
1010.34 1010.30 1010.22 1010.14 1009.98 1009.86 1009.74 1009.58 1009.46 1009.34 1009.26 1009.10 1008.94 1008.74 1008.58 1008.50 1008.34 1008.18 1008.06 1007.94 1007.86 1007.82 1007.74 1007.58 1007.50 1007.50 1007.46 1007.42 1007.30 1007.30 1007.26 1007.14 1007.14 1007.10 1007.10 1007.14 1007.22 1007.22 1007.14 1007.10 1007.02 1007.06 1007.10 1007.14 1007.14 1007.14 1007.18 1007.22 1007.22 1007.30 1007.38 1007.46 1007.50 1007.58 1007.62 1007.70 1007.74 1007.86 1008.02 1008.18 1008.34 1008.58 1008.82 1009.06 1009.30 1009.54 1009.74 1009.90 1010.10
1010.02 1009.98 1009.90 1009.86 1009.74 1009.58 1009.46 1009.30 1009.22 1009.10 1008.94 1008.74 1008.58 1008.46 1008.34 1008.18 1008.02 1007.90 1007.82 1007.74 1007.74 1007.62 1007.46 1007.34 1007.30 1007.22 1007.14 1007.06 1006.98 1006.86 1006.86 1006.86 1006.86 1006.82 1006.82 1006.86 1006.86 1006.90 1006.86 1006.82 1006.78 1006.82 1006.86 1006.90 1006.90 1006.94 1006.94 1006.94 1006.98 1007.02 1007.14 1007.18 1007.26 1007.30 1007.38 1007.46 1007.46 1007.54 1007.66 1007.82 1007.98 1008.18 1008.46 1008.74 1009.02 1009.22 1009.42 1009.58 1009.74
1009.66 1009.58 1009.58 1009.58 1009.42 1009.30 1009.14 1009.02 1008.90 1008.74 1008.54 1008.38 1008.22 1008.14 1008.02 1007.90 1007.78 1007.66 1007.58 1007.46 1007.46 1007.34 1007.22 1007.14 1007.02 1006.90 1006.82 1006.74 1006.62 1006.58 1006.50 1006.50 1006.54 1006.54 1006.50 1006.50 1006.54 1006.58 1006.58 1006.54 1006.50 1006.54 1006.62 1006.66 1006.70 1006.70 1006.70 1006.74 1006.74 1006.78 1006.86 1006.94 1006.98 1007.02 1007.10 1007.14 1007.14 1007.22 1007.34 1007.46 1007.66 1007.86 1008.14 1008.42 1008.66 1008.86 1009.02 1009.18 1009.34
1009.30 1009.22 1009.18 1009.18 1009.10 1008.98 1008.86 1008.74 1008.54 1008.34 1008.14 1008.02 1007.90 1007.78 1007.70 1007.62 1007.50 1007.38 1007.26 1007.14 1007.14 1007.10 1007.02 1006.86 1006.74 1006.58 1006.50 1006.42 1006.38 1006.30 1006.22 1006.18 1006.18 1006.18 1006.18 1006.18 1006.14 1006.18 1006.18 1006.22 1006.18 1006.22 1006.30 1006.42 1006.42 1006.42 1006.46 1006.50 1006.50 1006.54 1006.58 1006.62 1006.70 1006.74 1006.82 1006.86 1006.86 1006.90 1007.02 1007.14 1007.34 1007.58 1007.86 1008.10 1008.30 1008.50 1008.66 1008.86 1008.98
1008.94 1008.86 1008.86 1008.86 1008.74 1008.62 1008.50 1008.34 1008.14 1007.94 1007.78 1007.70 1007.58 1007.50 1007.46 1007.34 1007.18 1007.06 1006.94 1006.90 1006.86 1006.86 1006.74 1006.62 1006.46 1006.34 1006.22 1006.14 1006.14 1006.02 1005.98 1005.90 1005.90 1005.90 1005.86 1005.82 1005.78 1005.78 1005.82 1005.86 1005.86 1005.86 1005.94 1006.06 1006.14 1006.14 1006.18 1006.26 1006.26 1006.30 1006.30 1006.38 1006.42 1006.50 1006.58 1006.62 1006.58 1006.58 1006.70 1006.82 1007.02 1007.30 1007.58 1007.78 1008.02 1008.14 1008.34 1008.54 1008.62
1008.58 1008.58 1008.54 1008.46 1008.38 1008.30 1008.14 1007.94 1007.74 1007.54 1007.46 1007.42 1007.34 1007.26 1007.14 1007.02 1006.90 1006.82 1006.74 1006.70 1006.62 1006.58 1006.46 1006.34 1006.22 1006.14 1006.02 1005.94 1005.86 1005.78 1005.74 1005.62 1005.58 1005.58 1005.58 1005.54 1005.50 1005.50 1005.50 1005.50 1005.46 1005.50 1005.58 1005.70 1005.78 1005.86 1005.86 1005.94 1005.98 1006.02 1006.02 1006.14 1006.18 1006.26 1006.30 1006.34 1006.30 1006.30 1006.34 1006.46 1006.74 1006.98 1007.22 1007.46 1007.66 1007.82 1008.02 1008.18 1008.38
Wind_Speed
8 7 7 7 6 6 6 6 6 6 6 6 6 6 6 6 7 7 6 6 6 7 7 7 7 7 7 9 11 12 13 13 14 15 15 16 15 15 14 13 13 13 12 13 12 11 11 11 11 9 8 8 8 9 9 8 9 10 11 11 11 11 12 13 13 13 13 13 10
8 8 8 8 7 6 5 6 6 6 6 6 6 6 7 7 7 7 7 7 7 7 7 6 7 7 8 10 11 12 13 13 14 15 15 16 15 14 14 13 13 13 13 13 12 11 10 11 10 9 8 8 8 9 9 9 9 10 11 13 11 10 10 12 12 13 12 12 10
7 7 7 6 6 6 6 6 6 7 7 7 6 6 6 6 7 7 7 7 7 7 6 6 6 7 9 10 11 11 12 13 13 14 14 14 14 14 14 13 13 13 13 12 12 11 10 11 10 10 9 8 9 9 10 9 9 10 11 13 10 9 9 10 11 10 10 9 10
6 6 6 6 8 8 8 7 7 8 7 7 6 6 6 6 6 6 7 6 6 6 7 7 7 7 9 10 10 11 12 12 13 13 13 13 14 14 14 13 13 13 13 12 12 12 11 11 10 9 9 10 10 10 10 9 9 10 10 10 9 9 9 9 9 8 8 8 9
5 5 6 7 9 9 9 7 8 8 7 6 6 6 6 6 6 6 6 6 6 7 8 8 7 7 8 9 10 11 12 12 13 13 13 13 13 13 14 14 14 13 13 12 12 12 12 12 9 9 9 10 9 9 9 9 10 9 8 8 8 8 8 8 7 7 7 7 7
5 5 6 6 8 8 7 7 8 8 7 6 6 7 7 6 6 6 7 8 8 8 8 8 8 8 8 8 10 10 11 12 12 12 12 13 13 13 13 14 14 13 12 12 13 12 12 11 9 9 9 8 8 9 9 10 10 9 9 8 8 8 8 8 7 7 7 8 9
5 5 5 6 6 7 6 6 7 7 6 6 7 9 9 8 8 9 9 9 7 7 7 7 8 8 8 8 9 10 11 11 11 12 13 13 13 13 13 14 14 13 13 13 13 12 12 11 10 9 9 9 8 9 10 10 10 10 10 10 9 8 8 9 7 7 9 11 12
4 4 5 5 5 6 6 6 6 6 6 5 8 9 10 10 10 10 10 8 7 7 6 6 8 8 9 9 10 10 11 12 12 12 13 12 13 13 14 14 14 14 14 13 13 12 12 11 10 10 9 9 8 9 10 11 11 11 12 12 9 8 8 7 7 8 10 12 13
3 4 4 4 4 5 5 6 6 6 6 7 8 9 10 10 10 10 9 8 8 7 6 6 8 8 9 10 10 11 11 11 12 12 12 13 13 14 14 13 14 14 14 13 13 13 13 11 10 10 10 9 9 9 10 12 13 13 13 12 11 10 9 9 9 10 11 12 13
4 3 3 3 4 4 4 4 4 5 6 8 9 9 9 10 10 9 9 8 7 7 7 7 8 8 9 10 10 11 11 10 11 12 12 13 14 14 14 13 14 14 14 13 13 13 13 12 11 11 11 10 11 11 11 12 14 14 14 11 11 12 12 11 11 11 12 12 13
4 4 3 3 4 3 3 3 3 4 5 7 8 8 8 9 9 8 7 6 7 8 8 8 8 9 9 10 10 10 10 10 10 11 12 13 14 14 14 14 14 14 14 14 13 12 12 12 13 13 13 12 12 11 11 13 14 15 15 13 13 13 14 13 13 12 12 12 13
4 4 4 3 3 3 2 3 3 4 5 6 7 7 8 8 8 7 7 6 8 9 9 8 9 9 10 10 10 10 10 10 10 11 12 13 13 14 14 14 14 14 14 14 13 12 11 13 14 15 15 14 12 11 11 13 14 15 16 15 14 14 14 14 14 12 12 12 13
4 4 4 3 3 2 2 3 3 4 5 6 7 7 7 7 7 7 7 8 9 9 9 8 8 9 10 10 10 10 10 10 11 11 12 12 13 13 13 14 14 14 14 13 13 12 12 13 15 15 16 15 13 12 12 13 14 15 16 16 16 15 15 15 14 13 12 13 13
4 4 4 4 3 3 3 3 4 4 5 6 7 7 7 7 7 6 7 8 9 9 8 7 8 8 9 10 10 10 10 10 11 12 12 13 12 13 13 13 14 14 13 13 13 14 14 14 15 15 16 16 15 14 14 14 14 15 16 17 17 17 16 15 14 13 13 14 14
4 4 4 3 3 3 3 4 4 5 6 7 7 7 7 6 7 7 7 8 9 9 8 7 8 8 9 10 10 11 11 11 11 12 13 13 13 13 13 13 14 14 13 13 13 14 15 15 15 15 16 16 16 16 15 14 15 15 16 16 17 17 16 15 14 14 14 15 15
4 4 4 3 3 3 4 5 5 5 6 7 7 7 7 6 6 6 7 8 8 8 7 8 8 8 8 9 10 10 10 11 11 12 13 13 13 13 13 14 14 14 14 14 14 14 15 15 15 15 15 16 16 16 16 15 15 16 16 16 17 16 16 16 16 16 16 16 16
4 4 3 3 3 4 5 5 5 5 6 7 7 7 7 7 6 6 7 8 8 8 8 9 9 8 8 9 9 9 10 10 11 12 13 13 13 14 14 14 14 14 14 14 15 15 15 15 14 14 15 16 16 16 16 16 15 16 16 16 16 16 16 17 17 17 17 17 18
4 4 4 3 4 5 6 6 6 6 7 8 8 7 7 7 7 7 8 8 8 9 10 10 9 9 9 9 9 8 9 10 11 12 13 13 14 14 14 14 14 14 14 14 15 15 16 15 15 14 14 15 15 15 15 15 15 15 16 16 16 16 16 17 17 17 17 18 18
5 4 4 4 5 6 6 7 7 7 7 7 7 7 7 8 8 8 8 8 8 9 10 11 10 9 9 10 10 9 9 10 12 13 13 13 13 13 14 14 14 13 14 14 15 15 15 15 15 14 14 14 14 14 14 14 14 15 15 16 16 16 16 16 17 17 17 17 18
6 6 6 6 6 6 7 7 7 7 7 7 7 8 8 8 8 8 9 9 9 9 10 10 10 10 10 10 10 10 10 10 11 13 13 13 13 13 14 14 13 13 13 14 14 15 15 15 14 14 14 14 14 14 14 14 14 14 15 14 15 15 15 16 16 16 16 17 17
7 7 6 6 6 6 7 7 7 7 7 7 8 8 9 9 8 8 9 10 9 9 9 10 10 11 11 11 11 11 11 10 11 12 13 12 13 13 13 13 13 13 13 13 13 14 14 14 14 14 13 13 14 14 14 14 14 14 14 13 14 14 15 15 15 16 16 16 16
7 7 6 6 6 7 7 7 7 7 7 8 8 9 9 9 9 9 9 8 8 8 9 10 11 11 12 12 12 12 11 10 11 11 12 11 12 12 12 12 12 12 13 13 13 13 14 14 14 13 13 13 14 14 14 14 14 15 15 15 14 14 14 15 15 15 15 16 16
8 7 7 6 7 7 8 8 7 8 8 9 9 9 9 9 9 9 9 8 8 8 9 10 10 11 12 12 12 12 12 11 11 11 11 11 11 11 11 11 11 12 13 12 12 12 12 12 13 13 13 13 13 14 14 15 15 14 15 15 15 14 14 14 14 15 15 15 15
8 7 7 6 7 7 8 7 7 8 8 9 10 9 9 9 9 9 8 8 9 9 10 10 10 10 11 11 11 12 12 12 12 12 12 11 11 11 11 10 11 12 12 11 11 12 12 11 11 11 12 12 12 13 14 14 14 14 14 15 15 15 14 14 14 14 14 15 14
8 8 8 7 8 8 8 8 9 9 10 10 10 10 9 10 9 8 8 9 9 10 10 10 10 10 10 10 10 11 11 12 13 13 13 12 12 11 11 10 11 10 10 10 15 18 19 16 13 11 10 11 11 12 12 13 14 14 14 14 14 14 14 14 15 15 15 15 14
8 8 8 9 8 8 9 9 10 10 10 10 10 10 10 10 9 8 8 9 10 10 10 10 10 10 10 9 10 10 11 11 12 13 13 13 13 12 12 11 10 9 10 12 19 22 24 23 20 16 12 10 11 11 11 12 13 14 14 14 14 14 14 14 15 16 15 14 14
7 8 9 9 9 9 10 10 10 10 10 10 10 11 11 10 9 9 9 10 10 10 9 9 9 10 10 9 10 11 11 11 12 12 13 13 13 13 13 12 10 9 10 15 21 24 26 26 26 23 18 11 11 11 11 11 12 13 14 14 14 15 15 15 16 16 16 15 15
7 8 8 9 9 10 11 10 10 10 11 11 11 11 10 10 10 10 10 10 10 9 8 8 8 7 7 7 9 11 12 12 12 12 12 12 13 14 13 12 11 11 13 18 22 25 26 27 27 26 23 17 12 11 11 11 12 12 13 13 14 15 15 15 15 15 15 15 15
8 8 9 9 10 11 11 11 11 11 11 11 11 10 10 9 10 10 11 10 10 9 8 7 6 6 6 7 9 11 12 12 12 11 11 12 13 13 14 13 13 14 17 22 24 25 26 26 27 27 26 23 15 11 10 11 11 12 12 12 13 14 14 14 14 14 14 15 15
8 8 9 10 11 11 11 12 12 11 11 10 9 9 9 10 10 10 11 11 11 10 9 7 6 7 8 10 10 10 11 11 11 11 11 12 13 14 14 14 13 14 18 23 25 26 26 26 27 27 27 27 19 14 10 11 11 12 12 12 13 14 15 15 15 15 15 14 14
9 9 9 10 11 12 12 12 12 11 10 9 9 9 10 10 11 10 10 9 10 9 9 7 8 10 11 11 9 9 10 10 10 10 11 12 14 14 15 14 14 15 17 23 25 26 26 26 26 27 27 28 22 16 11 11 12 12 12 13 14 15 15 15 15 16 16 15 15
9 9 10 10 12 12 13 13 12 11 10 10 10 10 11 11 11 10 8 7 8 8 8 8 9 10 10 10 9 9 10 11 11 11 12 12 13 14 14 14 14 15 17 22 24 25 26 26 26 26 26 27 23 17 13 12 13 13 14 14 15 16 15 14 14 15 17 17 16
10 10 10 11 12 13 13 12 12 11 10 10 10 11 11 12 10 9 8 7 7 7 8 9 10 10 10 10 9 10 10 11 12 13 13 13 13 13 13 13 13 14 17 22 24 25 26 26 26 26 26 26 22 18 14 12 12 12 13 14 15 15 16 16 15 15 16 17 16
11 11 11 11 12 13 13 12 11 10 10 10 10 11 11 10 10 10 9 8 7 7 8 8 9 9 9 9 9 10 11 11 11 12 12 13 13 13 13 12 11 13 17 22 24 25 25 26 26 26 26 26 21 17 14 13 12 12 13 14 14 15 15 16 16 16 16 16 15
11 11 12 12 13 13 13 12 11 10 10 10 11 11 11 10 10 11 10 9 8 7 7 7 7 8 8 9 9 10 11 12 11 11 11 12 12 12 13 13 12 15 18 22 23 24 25 25 25 25 25 23 17 14 13 13 12 13 14 15 15 15 15 15 15 15 15 15 15
11 12 12 13 13 13 13 12 11 10 9 10 11 11 11 10 10 9 8 8 8 7 7 7 7 7 7 9 9 10 11 12 12 12 11 11 11 12 13 14 13 16 19 22 23 24 24 24 25 25 24 20 14 12 11 12 11 12 13 15 15 15 16 15 15 14 14 14 15
12 12 12 13 13 13 12 11 10 10 10 10 11 10 10 11 9 8 7 6 7 7 7 7 7 7 8 9 10 11 11 11 11 12 12 12 11 12 13 14 14 15 18 21 23 24 24 24 24 24 22 17 12 11 10 10 9 10 11 13 14 15 15 14 14 14 14 14 15
12 12 12 13 13 13 12 11 10 10 11 11 10 9 8 8 8 7 7 6 6 7 7 7 8 8 8 9 10 11 11 11 11 12 12 12 12 12 13 14 13 14 15 19 22 23 24 24 24 23 21 15 12 10 9 9 9 9 10 11 12 13 13 12 12 12 13 15 17
13 13 12 12 13 13 12 11 11 11 11 10 10 9 8 7 7 6 6 6 6 7 7 7 8 9 10 10 10 11 11 11 11 12 12 12 13 13 14 14 13 13 14 17 21 23 23 24 24 24 22 17 13 10 9 9 9 9 9 9 9 10 11 11 11 11 12 15 20
13 13 12 12 12 12 12 11 11 11 10 9 10 9 8 7 7 7 7 6 6 6 7 8 9 10 10 10 10 11 11 11 11 11 12 12 13 15 16 15 13 13 14 17 20 22 23 24 24 24 22 17 12 10 8 8 9 10 9 8 8 8 9 10 10 10 11 13 18
12 12 12 12 12 11 11 11 12 11 9 9 9 9 8 7 7 7 6 6 6 6 7 8 9 10 10 10 10 10 11 11 11 11 12 13 14 15 16 15 14 13 13 15 19 21 23 23 24 24 22 17 12 9 8 8 9 10 10 9 8 8 8 9 9 10 10 11 13
Wind_Direction
232 229 227 226 228 229 230 233 232 231 230 227 228 227 225 223 228 228 226 220 222 223 223 221 220 219 217 211 210 211 214 216 216 217 217 218 218 217 215 215 214 213 212 213 211 209 207 207 209 212 216 216 217 217 217 215 212 212 213 214 217 217 217 218 219 219 217 216 216
235 232 229 228 229 229 230 234 233 231 229 225 225 224 223 223 226 228 227 223 223 224 224 224 222 219 215 212 210 211 213 216 216 217 219 219 219 217 216 215 214 213 212 212 210 209 208 206 208 211 215 216 216 218 218 213 210 211 214 215 215 216 217 219 220 218 216 216 215
237 234 231 229 228 228 228 231 231 230 228 227 224 223 223 223 226 227 227 224 224 223 223 226 222 217 213 211 211 211 213 215 215 216 219 220 220 218 216 216 215 215 214 212 210 210 209 205 207 211 215 216 215 216 216 213 209 211 214 215 215 215 216 219 219 217 215 215 213
238 234 231 228 225 224 225 227 228 226 225 225 223 223 224 226 227 228 229 226 224 223 223 223 222 217 213 211 211 212 213 214 214 216 219 221 220 219 217 216 216 215 215 213 212 211 210 206 208 212 215 216 215 216 216 212 209 211 214 214 214 214 215 218 215 213 212 214 212
238 232 226 224 221 222 223 224 224 224 223 221 221 224 227 228 229 230 230 228 225 223 221 219 218 216 213 209 210 211 213 215 215 217 219 221 221 220 218 217 217 216 215 214 213 212 210 206 210 215 217 216 216 216 215 210 209 211 214 214 214 214 214 215 212 210 209 211 210
239 231 226 222 220 221 223 224 222 222 222 218 219 224 228 228 228 228 229 230 228 224 220 217 218 216 213 207 208 210 212 215 216 217 219 220 221 220 220 219 218 217 216 214 213 211 210 207 212 216 218 217 219 218 215 210 209 211 213 215 214 213 212 212 209 207 207 209 209
240 235 230 226 221 221 223 225 223 222 221 220 221 225 228 229 227 227 228 230 229 225 221 218 218 216 212 206 208 210 211 213 216 217 218 220 220 219 219 219 218 217 216 214 212 211 210 208 213 217 219 218 219 217 213 209 210 211 213 215 213 211 209 211 208 206 206 208 208
252 245 238 233 226 225 225 226 224 223 223 225 226 228 229 230 229 230 231 233 232 229 225 223 219 215 211 207 208 210 212 213 215 217 218 219 219 219 219 219 218 218 217 214 212 211 210 209 214 217 218 217 217 214 210 206 209 211 213 214 213 211 208 207 205 205 206 207 207
276 264 255 248 239 232 230 229 225 223 225 229 231 231 231 231 231 232 234 236 235 231 227 226 221 216 212 211 212 212 212 213 215 217 218 218 219 219 219 219 219 218 218 215 213 212 211 211 215 218 217 215 215 212 207 203 207 210 212 214 214 212 209 207 205 204 205 206 206
283 276 269 264 254 244 237 236 231 227 229 234 236 236 236 235 234 234 235 237 237 235 232 230 223 219 217 217 217 216 215 215 216 217 219 220 219 219 219 219 218 219 218 216 214 213 212 214 218 219 219 217 215 212 207 202 206 209 212 213 213 212 211 208 205 205 205 206 206
287 279 271 265 260 255 249 246 242 236 235 239 242 242 241 239 238 237 236 237 237 237 235 230 224 221 221 222 221 220 218 217 218 219 220 221 221 221 220 219 219 218 218 216 214 213 214 217 219 220 220 218 216 212 209 205 207 209 212 214 213 212 212 210 206 205 206 206 207
293 286 278 269 268 266 261 254 251 246 242 243 246 245 243 241 239 238 237 236 236 237 236 231 224 223 224 226 224 223 221 220 220 221 221 222 223 222 221 221 220 219 218 217 214 213 215 218 219 220 220 219 216 213 210 207 208 211 213 215 213 213 212 211 207 206 205 205 206
298 295 290 285 283 279 271 262 258 253 250 248 248 246 244 242 238 236 235 235 236 238 238 233 226 224 226 228 227 224 222 220 220 221 223 223 223 222 222 222 221 220 219 218 215 214 216 218 218 219 218 217 216 214 211 208 209 211 213 215 214 214 214 212 208 206 205 205 206
303 301 298 295 295 290 282 273 268 263 258 255 253 250 247 246 240 235 231 232 236 238 238 234 229 227 227 228 228 225 223 221 220 221 223 224 223 222 221 222 221 220 220 220 217 217 217 218 217 217 217 216 216 214 211 208 209 211 213 214 215 215 214 212 208 206 205 205 207
307 304 301 301 300 295 288 280 275 271 267 263 259 255 251 251 245 238 234 233 236 237 237 234 233 231 229 227 227 225 224 222 221 222 223 225 224 222 221 222 221 220 220 220 219 218 218 218 217 216 216 216 216 214 212 209 210 211 213 214 214 214 214 211 208 206 205 205 207
303 301 301 303 300 296 290 283 280 277 274 271 267 263 258 255 251 244 240 238 240 240 238 236 235 234 231 227 225 224 224 224 223 223 224 225 224 223 222 222 221 220 219 219 220 220 220 219 218 216 216 216 216 215 213 211 211 212 213 214 214 214 213 210 207 206 206 206 206
295 294 294 295 294 291 287 284 283 281 278 276 274 270 266 262 258 252 247 243 244 244 242 239 237 235 233 231 226 223 223 225 224 224 225 225 224 223 222 222 221 219 218 218 219 220 221 220 219 217 217 217 217 216 214 213 212 213 213 214 214 214 212 211 208 207 207 207 208
287 285 285 286 284 283 282 282 282 281 279 277 276 273 270 266 263 259 255 249 246 244 244 243 240 237 234 233 229 225 223 224 225 226 225 225 224 223 223 222 221 219 218 217 219 220 220 219 218 218 218 218 218 217 216 214 214 214 214 214 214 213 212 211 210 208 208 209 210
281 280 279 278 276 276 277 278 279 279 277 276 275 274 271 268 263 262 260 256 249 245 244 246 246 242 238 235 233 230 227 226 227 227 227 226 225 224 223 223 221 219 218 218 219 220 220 219 218 217 217 218 218 218 217 216 216 215 215 215 214 213 212 212 210 210 209 210 210
275 275 274 271 271 272 273 274 274 275 275 275 275 274 273 269 264 261 260 258 253 248 245 247 248 247 244 239 237 235 233 231 229 229 229 227 226 225 224 222 221 220 218 218 219 220 220 220 218 217 216 216 216 217 217 217 217 216 216 215 215 214 213 212 211 211 210 210 210
272 270 269 268 269 269 270 270 271 272 273 275 274 273 272 270 266 261 257 256 254 251 248 247 248 248 247 245 241 239 238 237 233 232 231 230 227 225 223 221 221 220 219 218 219 219 219 219 218 216 215 215 215 216 216 216 216 216 216 216 215 215 214 212 212 211 211 211 210
270 269 269 270 269 269 269 269 270 271 272 273 272 272 271 270 266 262 258 257 255 252 249 248 247 247 247 246 244 242 241 241 237 235 233 231 229 227 224 221 220 220 220 219 218 218 218 218 217 216 215 215 215 215 215 214 215 216 216 216 216 216 214 213 213 213 212 212 211
271 272 273 273 272 272 272 272 272 272 273 272 271 271 270 268 266 263 261 260 257 254 251 250 248 247 246 245 244 244 244 244 242 239 236 232 231 228 225 221 220 220 221 220 217 216 216 217 217 216 215 215 215 215 215 214 215 215 216 216 216 215 215 214 214 214 213 213 211
274 276 278 278 277 275 275 274 274 274 273 271 270 270 269 268 267 267 265 262 258 254 252 252 251 249 248 246 244 243 243 243 243 241 239 234 231 228 225 222 221 221 221 220 216 213 212 213 215 215 215 215 215 215 215 215 215 215 215 215 215 215 215 215 214 214 214 214 213
275 277 279 279 278 277 276 275 273 272 271 270 270 269 269 268 268 267 265 263 259 255 253 253 253 252 251 249 246 244 242 241 242 241 240 237 233 229 226 224 224 223 222 222 221 220 218 215 213 212 212 214 215 216 216 216 216 215 215 214 214 215 216 217 216 216 215 215 214
275 277 278 277 278 278 277 274 271 269 269 270 270 270 269 267 266 264 263 262 259 257 254 253 254 253 252 250 248 245 243 241 240 240 239 238 235 231 228 227 226 225 224 223 224 225 224 223 219 216 212 210 212 214 216 217 217 216 216 215 215 215 216 217 217 217 216 216 215
276 276 276 277 279 277 275 272 270 270 270 269 268 267 266 265 264 263 261 260 259 258 256 255 254 254 253 251 247 245 243 242 240 239 237 237 235 232 230 229 228 226 225 225 227 228 229 228 226 222 216 208 209 211 215 217 216 217 217 217 217 217 217 218 218 218 217 217 217
274 275 276 279 279 276 274 273 272 270 268 266 264 264 264 264 263 262 261 260 260 260 259 257 254 253 252 252 247 244 242 241 240 238 237 236 235 233 232 231 229 228 227 227 229 231 232 233 232 229 224 213 208 208 212 215 216 216 217 218 219 219 219 220 219 219 218 218 218
272 274 276 278 276 275 275 274 271 267 265 264 263 263 264 264 262 261 260 261 261 261 260 258 255 252 250 248 246 244 242 241 240 238 237 236 236 235 234 233 232 231 231 230 231 233 234 235 236 235 231 223 214 207 207 213 215 217 218 219 219 219 220 220 220 219 219 219 218
272 273 274 274 274 274 273 271 268 266 265 265 265 265 264 264 262 261 260 260 259 257 256 256 256 253 250 247 247 246 244 242 239 237 236 236 236 236 236 235 234 234 233 233 234 235 236 237 237 238 237 232 223 213 206 210 214 217 218 219 219 219 219 220 220 220 220 220 219
275 274 273 272 273 272 271 269 268 267 267 267 267 267 266 265 264 262 260 258 257 257 256 255 255 253 251 249 248 247 246 244 240 237 235 236 237 238 237 236 235 235 235 235 236 237 238 238 239 239 238 238 232 223 210 206 211 215 218 219 218 218 217 218 219 219 219 220 219
276 275 274 273 272 271 270 269 269 268 268 267 267 268 267 266 265 263 262 260 261 261 261 258 255 254 254 253 251 248 246 245 241 238 235 235 237 238 239 238 236 236 237 237 238 239 240 240 240 240 239 239 237 231 219 208 210 214 217 219 218 216 215 215 216 217 218 219 218
277 276 274 272 271 270 270 270 269 268 267 267 267 268 268 268 269 269 267 264 263 262 260 258 256 255 255 254 252 250 247 244 241 239 238 236 237 239 240 241 239 238 238 238 240 241 242 242 242 241 240 239 239 237 229 216 212 213 216 218 217 215 214 213 214 215 216 216 217
278 277 275 272 271 270 270 269 268 267 266 267 268 268 268 270 273 273 272 269 265 261 258 255 254 254 254 253 252 251 249 247 243 240 238 237 237 238 240 241 241 240 239 240 241 242 243 243 243 243 242 240 240 239 235 225 217 215 215 217 216 214 213 212 213 213 214 214 215
277 276 275 272 271 269 268 267 266 265 265 266 268 269 270 270 270 271 272 272 270 267 263 259 255 255 255 255 252 251 251 250 247 242 238 236 236 238 240 241 242 242 241 242 243 243 244 244 244 244 243 241 241 239 237 231 223 218 215 216 215 213 212 211 212 212 212 212 213
274 273 272 271 270 268 266 263 262 262 263 265 268 271 272 271 270 270 271 273 273 271 268 265 262 260 258 257 254 251 249 248 246 243 239 234 234 236 239 241 243 242 242 243 244 245 245 245 245 244 243 242 240 238 237 235 229 221 216 215 215 213 211 209 210 210 211 210 211
272 270 269 269 267 265 262 259 259 261 265 267 269 271 272 273 273 273 272 273 273 271 269 267 266 263 260 258 255 252 248 244 243 242 240 236 233 235 238 241 242 242 242 242 244 245 246 246 246 244 243 241 239 236 235 236 233 225 218 216 216 213 211 209 209 209 209 209 209
271 269 267 265 263 261 259 257 260 264 268 270 271 271 272 273 274 274 273 272 270 270 271 271 269 266 264 261 259 256 251 245 241 240 239 237 234 234 236 240 241 241 240 241 243 245 246 247 246 245 242 240 237 234 233 235 233 228 221 217 216 213 210 208 208 209 209 209 209
271 269 265 260 257 256 256 259 263 267 271 273 274 274 274 273 273 273 271 269 267 269 271 273 272 271 269 267 265 262 256 248 241 238 237 237 235 234 235 239 241 240 239 239 241 244 245 246 246 245 243 241 237 233 231 232 233 230 224 216 213 211 209 208 208 208 209 210 212
271 268 263 256 252 253 256 262 267 271 274 276 276 276 275 273 273 273 273 271 268 268 269 272 273 273 273 273 270 267 261 253 244 238 236 236 236 236 237 239 240 240 238 238 240 242 243 244 245 244 243 241 237 232 230 230 232 230 225 216 209 206 205 206 207 208 209 210 214
270 266 261 253 250 252 258 266 272 276 278 278 275 274 273 274 275 276 276 275 271 270 271 273 275 275 275 275 273 269 264 259 249 241 236 235 236 237 238 239 239 238 237 236 238 240 241 242 243 243 242 241 236 232 229 228 230 229 225 216 206 200 200 202 205 206 207 207 211